Weather in Kuti

Ukraine / Ivano-Frankovsk District     48°15′44″N   25°10′46″E
temp.,
°C
wind,
m/s
gust,
m/s
humid.,
%
clouds,
%
prec.,
mm/h
press.,
hPa
HPBL,
m
26 june, sun
sun2600:00+15s227478 0.0 101624
03:00+15ssw117865 0.0 101715
06:00+15s118282 0.0 101718
09:00+18e127694 0.0 1018207
12:00+23ene335641 0.3 10181455
15:00+23ese236035 1.8 10181438
18:00+20ese128072 2.6 1018151
21:00+17wsw118513 3.7 101911
27 june, mon
mon2700:00+15sw229319 1.4 102017
03:00+14sw22935 1.6 102017
06:00+14ssw11935 0.0 102115
09:00+20ne11760 0.0 1020397
12:00+24ene325416 0.1 10201463
15:00+27e434453 0.1 10182133
18:00+24se355789 0.1 1018634
21:00+19ssw228092 0.4 101915
28 june, tue
tue2800:00+16ssw22865 0.0 102023
03:00+16sw22880 0.0 102026
06:00+15ssw22870 0.0 102023
09:00+23ese12570 0.0 1020518
12:00+26ene33420 0.0 10191668
15:00+28e32340 0.0 10181893
18:00+27e433592 0.0 10171566
21:00+20ssw2262100 0.0 101813
29 june, wed
wed2900:00+17ssw226993 0.0 101921
03:00+16sw22732 0.0 101923
06:00+16ssw22730 0.0 101820
09:00+23ese125015 0.0 1018414
12:00+28ese443574 0.0 10171522
15:00+30ese55307 0.0 10151903
18:00+28s2335100 0.0 10161333
21:00+19sw338060 0.1 101551
30 june, thu
thu3000:00+17ssw228196 0.0 101632
03:00+17ssw227457 0.0 101629
06:00+18ssw2268100 0.0 101635
09:00+24s1351100 0.0 1015283
12:00+31ese44295 0.0 10152312
15:00+32ese662751 0.0 10142770
18:00+26ssw2450100 0.0 1014186
21:00+22wsw11644 0.0 101512